{"data":{"norad_id":66679,"intl_designator":"2025-276P","name":"LILIUM-2","alt_names":[],"object_type":"PAYLOAD","status":"ACTIVE","operator":null,"country":"ROC","launch_date":"2025-11-28","launch_site_code":"AFWTR","launch_vehicle":null,"mission":null,"orbit_class":"UNKNOWN","rcs_meters":null,"size_class":null,"mass_kg":null,"dimensions":null,"purposes":[],"wikipedia_slug":null,"has_3d_model":false,"image_url":null,"decayed_at":null,"tle_current":{"epoch":"2026-05-25T03:59:53.172960Z","epoch_age_seconds":67573,"freshness":"FRESH","line1":"1 66679U 25276P   26145.16658765  .00001904  00000+0  97390-4 0  9993","line2":"2 66679  97.4160 218.6732 0007730  89.0117 271.2003 15.17813739 26902","mean_motion":15.17813739,"eccentricity":0.000773,"inclination_deg":97.416,"raan_deg":218.6732,"arg_perigee_deg":89.0117,"mean_anomaly_deg":271.2003,"bstar":9.739e-5,"rev_number":2690,"period_min":94.873301183104,"perigee_km":507.12306500583,"apogee_km":517.77591171684,"semimajor_km":6890.5864883613,"source":"CELESTRAK","updated_at":"2026-05-25T13:38:06.409138Z"}}}